sat.trackr.live / text

‹ back to catalog

STARLINK-1080

NORAD 44961 · 2020-001AZ

PAYLOAD ACTIVE UNKNOWN

§ Identity

Operator
Country
US
Launch date
2020-01-07
Launch site
AFETR
Launch vehicle
Mass (kg)
RCS (m²)

Purposes: comms

External: N2YO · Heavens-Above · Gunter

§ Orbital elements

Epoch: 2026-09-19T23:22:48.777888Z

Period
91.10 min
Inclination
53.0417°
Eccentricity
0.0000840
Mean motion
15.80680976 rev/d
Perigee alt
328.0 km
Apogee alt
329.1 km
Semi-major
6,706.7 km
B*
4.3781e-4
RAAN
54.1933°
Arg perigee
132.9874°
Mean anomaly
227.1218°
Rev number
37,110

§ Raw data

STARLINK-10801 44961U 20001AZ  26262.97417567  .00085818  00000+0  43781-3 0  99962 44961  53.0417  54.1933 0000840 132.9874 227.1218 15.80680976371102

JSON: /api/v1/satellites/44961 · /tle

For live sub-satellite position, see the globe view (requires WebGL).

§ Visibility from observer

Set your observer location to see the next 7 days of passes ≥ 10°. The values pass through the URL so the page stays shareable.

No JS? Fill the form by hand. The geolocation button needs JavaScript.